Ithaca, NY

8:02 AM EST on February 19, 2017 (GMT -0500)
Tompkins County

Weather History for KITH - July, 2013

Change the Weather History Date:

Wednesday, July 17, 2013

  Actual Average Record
Temperature  
Mean Temperature 78 °F -  
Max Temperature 91 °F 81 °F 98 °F (1988)
Min Temperature 64 °F 57 °F 44 °F (1954)
Cooling Degree Days 12    
Growing Degree Days 28 (Base 50)    
Moisture  
Dew Point 69 °F    
Average Humidity 78    
Maximum Humidity 100    
Minimum Humidity 50    
Precipitation  
Precipitation 0.00 in - - ()
Sea Level Pressure  
Sea Level Pressure 30.21 in    
Wind  
Wind Speed 4 mph (ENE)    
Max Wind Speed 9 mph    
Max Gust Speed -    
Visibility 8 miles    
Events Fog    
Averages and records for this station are not official NWS values.
T = Trace of Precipitation, MM = Missing Value Source: NWS Daily Summary

Daily Weather History Graph

Daily Weather History Graph

Search for Another Location

Airport or City:

Trip Planner

Search our weather history database for the weather conditions in past years. The results will help you decide how hot, cold, wet, or windy it might be!

Date:

Astronomy

Jul. 17, 2013 Rise Set
Actual Time 5:43 AM EDT 8:39 PM EDT
Civil Twilight 5:10 AM EDT 9:13 PM EDT
Nautical Twilight 4:27 AM EDT 9:55 PM EDT
Astronomical Twilight 3:38 AM EDT 10:44 PM EDT
Moon 3:24 PM EDT (7/17) 12:51 AM EDT (7/17)
Length of Visible Light 16h 02m
Length of Day
14h 55m
Waxing Gibbous, 67% of the Moon is Illuminated
Jul 17
Waxing Gibbous
Jul 22
Full
Jul 29
Last Quarter
Aug 6
New
Aug 14
First Quarter

Hourly Weather History & Observations

Time (EDT) Temp. Heat Index Dew Point Humidity Pressure Visibility Wind Dir Wind Speed Gust Speed Precip Events Conditions
12:56 AM 68.0 °F - 66.9 °F 96% 30.25 in 7.0 mi East 4.6 mph - N/A   Clear
1:56 AM 68.0 °F - 65.8 °F 93% 30.25 in 5.0 mi East 4.6 mph - N/A   Clear
2:56 AM 66.9 °F - 65.8 °F 96% 30.24 in 5.0 mi East 4.6 mph - N/A   Clear
3:56 AM 64.9 °F - 64.9 °F 100% 30.25 in 3.0 mi Calm Calm - N/A   Clear
4:56 AM 65.8 °F - 64.9 °F 97% 30.25 in 4.0 mi East 5.8 mph - N/A   Clear
5:46 AM 64.4 °F - 64.4 °F 100% 30.28 in 2.5 mi East 5.8 mph - N/A   Clear
5:56 AM 64.9 °F - 63.9 °F 96% 30.26 in 2.5 mi East 4.6 mph - N/A   Clear
6:06 AM 64.4 °F - 64.4 °F 100% 30.28 in 3.0 mi East 4.6 mph - N/A   Clear
6:27 AM 66.2 °F - 64.4 °F 94% 30.28 in 10.0 mi East 5.8 mph - N/A Fog Clear
6:56 AM 66.9 °F - 64.9 °F 93% 30.27 in 10.0 mi East 4.6 mph - N/A Fog Clear
7:56 AM 72.9 °F - 68.0 °F 85% 30.27 in 10.0 mi Calm Calm - N/A Fog Partly Cloudy
8:56 AM 79.9 °F - 68.0 °F 67% 30.26 in 10.0 mi Calm Calm - N/A   Clear
9:56 AM 83.8 °F 87.5 °F 68.9 °F 61% 30.25 in 10.0 mi Calm Calm - N/A   Partly Cloudy
10:56 AM 86.9 °F 91.0 °F 68.9 °F 55% 30.25 in 10.0 mi Calm Calm - N/A   Partly Cloudy
11:56 AM 88.9 °F 94.7 °F 70.9 °F 55% 30.23 in 10.0 mi Calm Calm - N/A   Scattered Clouds
12:56 PM 88.0 °F 94.7 °F 72.0 °F 59% 30.22 in 10.0 mi NNW 9.2 mph - N/A   Scattered Clouds
1:56 PM 90.0 °F 97.9 °F 72.9 °F 57% 30.20 in 10.0 mi NNW 3.5 mph - N/A   Scattered Clouds
2:56 PM 90.9 °F 98.3 °F 72.0 °F 54% 30.17 in 10.0 mi Calm Calm - N/A   Scattered Clouds
3:56 PM 90.9 °F 98.3 °F 72.0 °F 54% 30.15 in 10.0 mi Variable 4.6 mph - N/A   Scattered Clouds
4:56 PM 91.9 °F 98.4 °F 70.9 °F 50% 30.13 in 10.0 mi West 6.9 mph - N/A   Scattered Clouds
5:56 PM 91.9 °F 98.4 °F 70.9 °F 50% 30.11 in 10.0 mi West 4.6 mph - N/A   Partly Cloudy
6:56 PM 88.0 °F 97.5 °F 74.8 °F 65% 30.12 in 10.0 mi NNW 4.6 mph - N/A   Mostly Cloudy
7:56 PM 83.8 °F 89.8 °F 72.9 °F 69% 30.11 in 10.0 mi ENE 3.5 mph - N/A   Scattered Clouds
8:56 PM 79.0 °F - 72.0 °F 79% 30.12 in 10.0 mi ENE 3.5 mph - N/A   Partly Cloudy
9:56 PM 73.9 °F - 72.0 °F 93% 30.13 in 10.0 mi Calm Calm - N/A   Clear
10:56 PM 72.9 °F - 70.9 °F 93% 30.12 in 10.0 mi Calm Calm - N/A   Scattered Clouds
11:56 PM 72.9 °F - 72.0 °F 97% 30.13 in 10.0 mi Calm Calm - N/A   Mostly Cloudy